TA3ONK-13 Weather Reports


time (UTC)temp
C
wind
direction
speed
KPH
gust
KPH
rain 1hr
cm
rain 24hr
cm
rain mn
cm
humidity
%
barometer
mb
20260507131304 32 0 0.0 0.0 0.00 0.00 0.00 31 1018.5
20260507125804 33 0 0.0 0.0 0.00 0.00 0.00 30 1018.5
20260507124305 34 0 0.0 0.0 0.00 0.00 0.00 29 1018.4
20260507122804 33 0 0.0 0.0 0.00 0.00 0.00 28 1018.4
20260507121304 33 0 0.0 0.0 0.00 0.00 0.00 28 1018.6
20260507115804 32 0 0.0 0.0 0.00 0.00 0.00 28 1018.6
20260507114304 31 0 0.0 0.0 0.00 0.00 0.00 30 1018.6
20260507112803 33 0 0.0 0.0 0.00 0.00 0.00 28 1018.5
20260507111304 32 0 0.0 0.0 0.00 0.00 0.00 27 1018.5
20260507105805 32 0 0.0 0.0 0.00 0.00 0.00 25 1018.4
20260507104304 31 0 0.0 0.0 0.00 0.00 0.00 26 1018.4
20260507102805 30 0 0.0 0.0 0.00 0.00 0.00 27 1018.4
20260507101305 32 0 0.0 0.0 0.00 0.00 0.00 26 1018.3
20260507095805 31 0 0.0 0.0 0.00 0.00 0.00 27 1018.3
20260507094304 31 0 0.0 0.0 0.00 0.00 0.00 26 1018.2
20260507092805 31 0 0.0 0.0 0.00 0.00 0.00 26 1018.3
20260507091304 31 0 0.0 0.0 0.00 0.00 0.00 27 1018.3
20260507085804 31 0 0.0 0.0 0.00 0.00 0.00 27 1018.5
20260507084305 32 0 0.0 0.0 0.00 0.00 0.00 29 1018.5
20260507082805 31 0 0.0 0.0 0.00 0.00 0.00 29 1018.6
20260507081305 31 0 0.0 0.0 0.00 0.00 0.00 31 1018.6
20260507075804 32 0 0.0 0.0 0.00 0.00 0.00 29 1018.5
20260507074303 31 0 0.0 0.0 0.00 0.00 0.00 32 1018.5
20260507072805 30 0 0.0 0.0 0.00 0.00 0.00 35 1018.5
20260507071303 29 0 0.0 0.0 0.00 0.00 0.00 37 1018.7
20260507065804 25 0 0.0 0.0 0.00 0.00 0.00 43 1018.7
20260507064305 25 0 0.0 0.0 0.00 0.00 0.00 43 1018.7
20260507062804 22 0 0.0 0.0 0.00 0.00 0.00 48 1018.6
20260507061304 22 0 0.0 0.0 0.00 0.00 0.00 45 1018.6
20260507055804 26 0 0.0 0.0 0.00 0.00 0.00 35 1018.6
20260507054304 25 0 0.0 0.0 0.00 0.00 0.00 37 1018.6
20260507052804 25 0 0.0 0.0 0.00 0.00 0.00 39 1018.6
20260507051304 23 0 0.0 0.0 0.00 0.00 0.00 39 1018.4
20260507045803 26 0 0.0 0.0 0.00 0.00 0.00 34 1018.4
20260507044305 25 0 0.0 0.0 0.00 0.00 0.00 35 1018.3
20260507042804 25 0 0.0 0.0 0.00 0.00 0.00 35 1018.1
20260507041304 26 0 0.0 0.0 0.00 0.00 0.00 33 1018.1
20260507035804 26 0 0.0 0.0 0.00 0.00 0.00 33 1018.0
20260507034304 26 0 0.0 0.0 0.00 0.00 0.00 34 1017.7
20260507031303 26 0 0.0 0.0 0.00 0.00 0.00 33 1017.6
20260507025803 27 0 0.0 0.0 0.00 0.00 0.00 33 1017.5
20260507024303 26 0 0.0 0.0 0.00 0.00 0.00 32 1017.3
20260507022804 27 0 0.0 0.0 0.00 0.00 0.00 31 1017.2
20260507021304 26 0 0.0 0.0 0.00 0.00 0.00 33 1017.2
20260507015804 26 0 0.0 0.0 0.00 0.00 0.00 34 1017.0
20260507014305 25 0 0.0 0.0 0.00 0.00 0.00 35 1017.0
20260507012805 27 0 0.0 0.0 0.00 0.00 0.00 33 1017.1
20260507011303 27 0 0.0 0.0 0.00 0.00 0.00 33 1017.0
20260507005804 26 0 0.0 0.0 0.00 0.00 0.00 35 1017.1
20260507004304 25 0 0.0 0.0 0.00 0.00 0.00 35 1017.0
20260507002805 27 0 0.0 0.0 0.00 0.00 0.00 33 1017.1
20260507001304 27 0 0.0 0.0 0.00 0.00 0.00 33 1017.0
20260506235804 27 0 0.0 0.0 0.00 0.00 0.00 34 1017.1
20260506234303 28 0 0.0 0.0 0.00 0.00 0.00 34 1017.2
20260506232804 27 0 0.0 0.0 0.00 0.00 0.00 33 1017.3
20260506231304 28 0 0.0 0.0 0.00 0.00 0.00 33 1017.2
20260506225804 29 0 0.0 0.0 0.00 0.00 0.00 33 1017.3
20260506224305 28 0 0.0 0.0 0.00 0.00 0.00 33 1017.4
20260506222805 27 0 0.0 0.0 0.00 0.00 0.00 35 1017.5
20260506221304 29 0 0.0 0.0 0.00 0.00 0.00 33 1017.5
20260506215804 30 0 0.0 0.0 0.00 0.00 0.00 33 1017.5
20260506214303 30 0 0.0 0.0 0.00 0.00 0.00 32 1017.7
20260506212804 30 0 0.0 0.0 0.00 0.00 0.00 31 1017.6
20260506211304 30 0 0.0 0.0 0.00 0.00 0.00 32 1017.6
20260506205804 30 0 0.0 0.0 0.00 0.00 0.00 32 1017.6
20260506204304 29 0 0.0 0.0 0.00 0.00 0.00 33 1017.6
20260506202805 30 0 0.0 0.0 0.00 0.00 0.00 32 1017.6
20260506201304 31 0 0.0 0.0 0.00 0.00 0.00 32 1017.5
20260506195804 30 0 0.0 0.0 0.00 0.00 0.00 32 1017.5
20260506194304 31 0 0.0 0.0 0.00 0.00 0.00 32 1017.4
20260506192805 30 0 0.0 0.0 0.00 0.00 0.00 33 1017.2
20260506191304 28 0 0.0 0.0 0.00 0.00 0.00 35 1017.0
20260506185803 28 0 0.0 0.0 0.00 0.00 0.00 35 1016.9
20260506184305 30 0 0.0 0.0 0.00 0.00 0.00 34 1016.7
20260506182802 29 0 0.0 0.0 0.00 0.00 0.00 33 1016.6
20260506181304 30 0 0.0 0.0 0.00 0.00 0.00 32 1016.5
20260506175805 31 0 0.0 0.0 0.00 0.00 0.00 30 1016.5
20260506174305 30 0 0.0 0.0 0.00 0.00 0.00 30 1016.3
20260506172804 30 0 0.0 0.0 0.00 0.00 0.00 28 1016.2
20260506171304 32 0 0.0 0.0 0.00 0.00 0.00 29 1016.3
20260506165804 31 0 0.0 0.0 0.00 0.00 0.00 30 1016.2
20260506164304 29 0 0.0 0.0 0.00 0.00 0.00 31 1016.1
20260506162805 27 0 0.0 0.0 0.00 0.00 0.00 34 1016.1
20260506161303 29 0 0.0 0.0 0.00 0.00 0.00 32 1016.1
20260506155804 27 0 0.0 0.0 0.00 0.00 0.00 35 1016.0
20260506154304 28 0 0.0 0.0 0.00 0.00 0.00 33 1016.0
20260506152805 30 0 0.0 0.0 0.00 0.00 0.00 30 1016.0
20260506151305 31 0 0.0 0.0 0.00 0.00 0.00 30 1016.2
20260506145804 31 0 0.0 0.0 0.00 0.00 0.00 29 1016.3
20260506144304 30 0 0.0 0.0 0.00 0.00 0.00 31 1016.3
20260506142804 32 0 0.0 0.0 0.00 0.00 0.00 27 1016.3
20260506141304 30 0 0.0 0.0 0.00 0.00 0.00 29 1016.4
20260506135802 31 0 0.0 0.0 0.00 0.00 0.00 28 1016.4
20260506134303 29 0 0.0 0.0 0.00 0.00 0.00 30 1016.4
20260506132804 28 0 0.0 0.0 0.00 0.00 0.00 29 1016.4